| time (UTC) | temp F | wind direction | speed MPH | gust MPH | rain 1hr in | rain 24hr in | rain mn in | humidity % | barometer mb |
| 20260902031510 | 61 | 195 | 1.0 | 5.0 | 0.01 | 0.01 | 0.01 | 91 | 1009.8 |
| 20260902030053 | 61 | 184 | 1.0 | 5.0 | 0.01 | 0.01 | 0.01 | 92 | 1009.7 |
| 20260902024510 | 61 | 214 | 1.0 | 5.0 | 0.01 | 0.01 | 0.01 | 91 | 1009.6 |
| 20260902023054 | 61 | 222 | 2.0 | 6.0 | 0.01 | 0.01 | 0.01 | 89 | 1009.7 |
| 20260902021514 | 63 | 266 | 2.0 | 9.0 | 0.00 | 0.00 | 0.00 | 83 | 1009.7 |
| 20260902014551 | 65 | 198 | 6.0 | 11.0 | 0.00 | 0.00 | 0.00 | 74 | 1009.5 |
| 20260902013014 | 65 | 213 | 3.0 | 7.0 | 0.00 | 0.00 | 0.00 | 76 | 1009.4 |
| 20260902011530 | 65 | 205 | 1.0 | 9.0 | 0.00 | 0.00 | 0.00 | 76 | 1009.3 |
| 20260902010031 | 65 | 241 | 3.0 | 12.0 | 0.00 | 0.00 | 0.00 | 75 | 1009.4 |
| 20260902004540 | 65 | 182 | 6.0 | 10.0 | 0.00 | 0.00 | 0.00 | 74 | 1009.4 |
| 20260902003022 | 65 | 209 | 7.0 | 14.0 | 0.00 | 0.00 | 0.00 | 77 | 1009.4 |
| 20260902001536 | 64 | 236 | 3.0 | 9.0 | 0.00 | 0.00 | 0.00 | 78 | 1009.5 |
| 20260902000027 | 63 | 247 | 3.0 | 9.0 | 0.00 | 0.00 | 0.00 | 80 | 1009.5 |
| 20260901234503 | 63 | 232 | 3.0 | 10.0 | 0.00 | 0.00 | 0.00 | 81 | 1009.6 |
| 20260901233013 | 65 | 215 | 4.0 | 7.0 | 0.00 | 0.00 | 0.00 | 79 | 1009.6 |
| 20260901231528 | 65 | 248 | 4.0 | 9.0 | 0.00 | 0.00 | 0.00 | 79 | 1009.5 |
| 20260901230049 | 64 | 214 | 5.0 | 11.0 | 0.00 | 0.00 | 0.00 | 79 | 1009.6 |
| 20260901224547 | 64 | 268 | 4.0 | 9.0 | 0.00 | 0.00 | 0.00 | 79 | 1009.6 |
| 20260901223036 | 64 | 216 | 3.0 | 8.0 | 0.00 | 0.00 | 0.00 | 80 | 1009.6 |
| 20260901221553 | 64 | 238 | 3.0 | 8.0 | 0.00 | 0.00 | 0.00 | 79 | 1009.7 |
| 20260901220043 | 65 | 230 | 3.0 | 8.0 | 0.00 | 0.00 | 0.00 | 79 | 1009.6 |
| 20260901214515 | 64 | 228 | 2.0 | 8.0 | 0.00 | 0.00 | 0.00 | 80 | 1009.6 |
| 20260901213036 | 64 | 276 | 4.0 | 8.0 | 0.00 | 0.00 | 0.00 | 79 | 1009.6 |
| 20260901211520 | 64 | 246 | 3.0 | 10.0 | 0.00 | 0.00 | 0.00 | 77 | 1009.7 |
| 20260901210043 | 65 | 229 | 5.0 | 13.0 | 0.00 | 0.00 | 0.00 | 76 | 1009.7 |
| 20260901204600 | 65 | 260 | 3.0 | 13.0 | 0.00 | 0.00 | 0.00 | 76 | 1009.7 |
| 20260901203103 | 66 | 247 | 5.0 | 9.0 | 0.00 | 0.00 | 0.00 | 74 | 1009.8 |
| 20260901201525 | 66 | 206 | 6.0 | 10.0 | 0.00 | 0.00 | 0.00 | 73 | 1009.8 |
| 20260901200011 | 66 | 243 | 5.0 | 8.0 | 0.00 | 0.00 | 0.00 | 72 | 1009.7 |
| 20260901194608 | 66 | 237 | 4.0 | 10.0 | 0.00 | 0.00 | 0.00 | 73 | 1009.8 |
| 20260901194500 | 66 | 212 | 4.0 | 10.0 | 0.00 | 0.00 | 0.00 | 73 | 1009.8 |
| 20260901193013 | 65 | 170 | 6.0 | 12.0 | 0.00 | 0.00 | 0.00 | 74 | 1009.8 |